Probability
0 0 0 0 0 0 0 0 0 0 0 0 0 0 0 0 0 0 0 0 0 0 0 0 0 0 0 0 0 0 0 0 0 0 0 0 0 0
0 0 0 0 0 0 0 0 0 0 0 0 0 0 0 0 0 0 0 0 0 0 0 0 0 0 0 0 0 0 0 0 0 0 0 0 0 0
0 0 0 0 0 0 0 0 0 0 0 0 0 0 0 0 0 0 0 0 0 0 0 0 0 0 0 0 0 0 0 0 0 0 0 0 0 0
0 0 0 0 0 0 0 0 0 0 0 0 0 0 0 0 0 0 0 0 0 0 0 0 0 0 0 0 0 0 0 0 0 0 0 0 0 0
0 0 0 0 0 0 0 0 0 0 0 0 0 0 0 0 0 0 0 0 0 0 0 0 0 0 0 0 0 0 0 0 0 0 0 0 0 0
0 0 0 0 0 0 0 0 0 0 0 0 0 0 0 0 0 0 0 0 0 0 0 0 0 0 0 0 0 0 0 0 0 0 0 0 0 0
0 0 0 0 0 0 0 0 0 0 0 0 0 0 0 0 0 0 0 0 0 0 0 0 0 0 0 0 0 0 0 0 0 0 0 0 0 0
0 0 0 0 0 0 0 0 0 0 0 0 0 0 0 0 0 0 0 0 0 0 0 0 0 0 0 0 0 0 0 0 0 0 0 0 0 0
0 0 0 0 0 0 0 0 0 0 0 0 0 0 0 0 0 0 0 0 0 0 0 0 0 0 0 0 0 0 0 0 0 0 0 0 0 0
0 0 0 0 0 0 0 0 0 0 0 0 0 0 0 0 0 0 0 0 0 0 0 0 0 0 0 0 0 0 0 0 0 0 0 0 0 0
0 0 0 0 0 0 0 0 0 0 0 0 0 0 0 0 0 0 0 0 0 0 0 0 0 0 0 0 0 0 0 0 0 0 0 0 0 0
0 0 0 0 0 0 0 0 0 0 0 0 0 0 0 0 0 0 0 0 0 0 0 0 0 0 0 0 0 0 0 0 0 0 0 0 0 0
0 0 0 0 0 0 0 0 0 0 0 0 0 0 0 0 0 0 0 0 0 0 0 0 0 0 0 0 0 0 0 0 0 0 0 0 0 0
0 0 0 0 0 0 0 0 0 0 0 0 0 0 0 0 0 0 0 0 0 0 0 0 0 0 0 0 0 0 0 0 0 0 0 0 0 0
0 0 0 0 0 0 0 0 0 0 0 0 0 0 0 0 0 0 0 0 0 0 0 0 0 0 0 0 0 0 0 0 0 0 0 0 0 0
0 0 0 0 0 0 0 0 0 0 0 0 0 0 0 0 0 0 0 0 0 0 0 0 0 0 0 0 0 0 0 0 0 0 0 0 0 0
0 0 0 0 0 0 0 0 0 0 0 0 0 0 0 0 0 0 0 0 0 0 0 0 0 0 0 0 0 0 0 0 0 0 0 0 0 0
0 0 0 0 0 0 0 0 0 0 0 0 0 0 0 0 0 0 0 0 0 0 0 0 0 0 0 0 0 0 0 0 0 0 0 0 0 0
0 0 0 0 0 0 0 0 0 0 0 0 0 0 0 0 0 0 0 0 0 0 0 0 0 0 0 0 0 0 0 0 0 0 0 0 0 0
0 0 0 0 0 0 0 0 0 0 0 0 0 0 0 0 0 0 0 0 0 0 0 0 0 0 0 0 0 0 0 0 0 0 0 0 0 0
0 0 0 0 0 0 0 0 0 0 0 0 0 0 0 0 0 0 0 0 0 0 0 0 0 0 0 0 0 0 0 0 0 0 0 0 0 0
0 0 0 0 0 0 0 0 0 0 0 0 0 0 0 0 0 0 0 0 0 0 0 0 0 0 0 0 0 0 0 0 0 0 0 0 0 0
0 0 0 0 0 0 0 0 0 0 0 0 0 0 0 0 0 0 0 0 0 0 0 0 0 0 0 0 0 0 0 0 0 0 0 0 0 0
Height
5674 5675 5678 5681 5684 5687 5689 5691 5693 5693 5694 5695 5694 5694 5693 5691 5691 5690 5689 5687 5686 5684 5682 5680 5678 5676 5675 5673 5671 5669 5668 5666 5664 5663 5661 5660 5660 5659
5655 5657 5660 5663 5667 5670 5673 5676 5678 5679 5679 5680 5680 5680 5677 5676 5675 5674 5673 5672 5670 5668 5666 5663 5661 5658 5656 5654 5652 5650 5648 5646 5644 5642 5640 5639 5638 5637
5636 5639 5642 5646 5650 5655 5658 5661 5663 5665 5665 5666 5665 5664 5663 5662 5660 5659 5658 5656 5654 5651 5649 5646 5643 5640 5638 5635 5632 5629 5627 5624 5622 5620 5617 5615 5613 5612
5620 5623 5626 5631 5635 5640 5643 5646 5649 5650 5651 5652 5651 5650 5649 5647 5646 5644 5642 5640 5637 5633 5630 5627 5624 5621 5617 5614 5611 5608 5605 5601 5598 5595 5592 5590 5587 5585
5607 5610 5613 5617 5622 5626 5629 5633 5635 5637 5638 5638 5638 5637 5635 5634 5632 5629 5626 5622 5619 5615 5611 5608 5604 5600 5597 5593 5589 5585 5582 5578 5574 5570 5566 5562 5559 5556
5598 5600 5603 5606 5610 5614 5618 5621 5623 5625 5626 5627 5626 5624 5622 5620 5617 5613 5609 5605 5601 5597 5593 5589 5584 5579 5575 5570 5566 5562 5557 5553 5548 5544 5539 5535 5531 5528
5591 5592 5594 5597 5600 5604 5608 5610 5613 5614 5615 5614 5613 5611 5609 5606 5602 5598 5594 5589 5584 5579 5575 5569 5564 5558 5551 5546 5541 5536 5532 5527 5522 5517 5513 5509 5505 5501
5585 5586 5588 5590 5593 5596 5599 5601 5603 5604 5604 5603 5601 5599 5596 5592 5588 5583 5579 5574 5567 5563 5557 5549 5542 5535 5528 5522 5517 5512 5508 5503 5498 5494 5489 5485 5481 5478
5583 5583 5584 5586 5588 5590 5591 5593 5594 5594 5593 5592 5590 5586 5583 5579 5574 5569 5563 5556 5549 5543 5538 5529 5521 5515 5507 5501 5496 5492 5487 5483 5478 5474 5470 5466 5462 5459
5583 5582 5582 5583 5584 5585 5586 5586 5585 5585 5584 5582 5579 5574 5570 5565 5559 5553 5546 5538 5530 5524 5519 5513 5504 5498 5489 5482 5478 5474 5470 5466 5462 5458 5454 5451 5448 5445
5583 5582 5581 5580 5581 5580 5580 5579 5578 5576 5573 5570 5566 5561 5556 5549 5543 5536 5528 5521 5513 5505 5501 5497 5490 5485 5476 5468 5463 5459 5456 5452 5448 5444 5441 5437 5435 5432
5582 5581 5580 5579 5577 5576 5574 5572 5570 5567 5563 5558 5553 5547 5540 5534 5526 5519 5512 5505 5498 5491 5485 5481 5475 5471 5467 5458 5452 5447 5443 5439 5436 5432 5428 5425 5422 5419
5581 5579 5577 5575 5573 5570 5567 5564 5560 5556 5551 5545 5539 5533 5526 5518 5511 5504 5497 5490 5484 5478 5473 5469 5463 5457 5454 5451 5443 5436 5432 5428 5424 5420 5416 5412 5409 5406
5578 5575 5572 5569 5566 5562 5558 5554 5549 5544 5538 5532 5525 5518 5511 5503 5496 5489 5483 5477 5471 5465 5459 5455 5451 5446 5441 5438 5434 5428 5422 5417 5413 5409 5405 5401 5397 5393
5573 5570 5566 5562 5558 5553 5548 5543 5538 5532 5525 5518 5511 5504 5496 5489 5483 5476 5470 5464 5458 5452 5446 5441 5437 5433 5429 5425 5422 5417 5413 5408 5402 5398 5395 5390 5386 5382
5567 5562 5558 5553 5549 5544 5538 5532 5526 5520 5513 5505 5498 5490 5483 5476 5470 5464 5458 5452 5447 5440 5433 5429 5424 5420 5416 5412 5408 5404 5400 5396 5392 5387 5384 5380 5375 5370
5559 5555 5550 5545 5539 5533 5527 5521 5514 5507 5500 5492 5484 5477 5470 5463 5457 5451 5446 5441 5436 5430 5423 5416 5411 5407 5403 5399 5395 5391 5387 5383 5380 5376 5372 5369 5364 5359
5551 5546 5541 5535 5529 5523 5517 5510 5502 5495 5487 5479 5471 5464 5457 5451 5445 5439 5434 5429 5424 5419 5413 5407 5401 5397 5394 5389 5384 5379 5375 5371 5368 5364 5360 5357 5354 5349
5542 5537 5531 5526 5519 5513 5505 5498 5490 5482 5473 5465 5458 5451 5445 5439 5433 5427 5422 5417 5412 5407 5401 5395 5390 5385 5383 5381 5377 5368 5363 5360 5357 5354 5349 5345 5343 5339
5533 5528 5522 5515 5509 5501 5494 5486 5477 5468 5460 5452 5444 5438 5431 5426 5420 5414 5409 5404 5400 5395 5390 5384 5378 5373 5370 5368 5366 5361 5351 5347 5345 5342 5339 5335 5332 5328
5524 5518 5512 5505 5498 5490 5482 5473 5464 5455 5447 5439 5431 5424 5418 5412 5407 5402 5397 5392 5388 5383 5379 5374 5368 5362 5358 5355 5353 5351 5344 5336 5332 5330 5327 5325 5322 5318
5515 5508 5502 5494 5487 5478 5469 5460 5451 5442 5433 5426 5418 5411 5405 5399 5394 5389 5384 5380 5376 5371 5367 5363 5358 5352 5347 5343 5341 5339 5335 5329 5323 5318 5314 5311 5309 5309
5505 5499 5492 5484 5476 5467 5457 5448 5438 5429 5421 5413 5406 5399 5392 5387 5381 5377 5372 5368 5364 5359 5355 5352 5348 5343 5338 5333 5330 5327 5324 5319 5315 5311 5306 5299 5297 5296
Wind_Speed
65 64 63 61 60 59 59 58 58 57 56 55 55 54 54 53 53 52 52 51 52 54 57 58 59 60 61 62 62 63 64 64 65 65 66 67 67 68
62 62 61 61 60 59 58 58 58 58 57 56 57 57 55 54 52 52 53 55 56 57 60 62 63 63 64 65 66 66 67 67 68 68 69 70 71 72
57 57 57 58 58 57 56 56 58 58 58 57 56 56 57 55 54 55 57 57 59 61 63 64 65 65 67 67 68 69 69 70 71 72 73 74 75 77
51 52 52 53 54 54 55 55 56 57 57 59 60 58 58 59 60 60 60 61 62 64 66 67 67 67 68 68 69 70 71 72 74 75 76 77 78 79
43 45 46 48 49 50 52 54 55 55 56 57 57 58 60 60 61 62 63 64 65 66 67 67 67 68 69 70 71 72 73 74 75 76 78 79 80 80
35 37 40 41 44 46 48 50 52 53 54 55 56 57 58 60 62 63 63 64 65 66 67 67 69 70 71 72 73 73 74 74 75 76 76 77 77 78
30 32 35 36 38 40 42 44 45 47 48 50 52 55 57 58 60 61 61 62 64 65 67 69 70 71 72 72 72 72 72 71 71 71 71 71 71 71
23 25 27 28 31 34 36 38 40 42 44 46 49 52 54 55 57 58 60 62 64 66 67 69 70 69 68 68 67 66 65 64 63 63 62 61 60 60
17 19 21 23 26 29 30 31 34 37 40 43 45 47 49 51 54 57 60 62 65 66 66 64 64 62 61 60 59 57 55 54 52 51 50 49 49 49
13 13 15 17 20 22 25 28 31 33 36 39 42 45 48 52 55 58 60 62 64 63 61 58 57 55 54 53 52 49 48 46 45 43 42 41 40 40
13 12 13 14 17 19 22 25 28 31 35 39 43 47 51 54 57 59 59 59 58 57 55 52 50 47 47 47 45 44 42 41 40 39 38 38 37 36
12 14 15 16 18 21 24 27 31 35 39 42 46 49 52 55 56 56 55 54 52 50 49 47 45 43 39 40 42 42 41 40 39 39 38 37 37 36
16 17 19 21 23 26 29 33 36 39 43 46 48 51 53 54 54 53 51 49 48 47 46 43 42 41 38 36 38 40 40 40 39 39 38 38 37 37
21 22 25 27 30 32 35 37 40 43 46 48 50 52 52 52 51 49 47 46 45 44 44 42 40 39 38 36 35 36 38 39 39 38 38 37 38 38
26 28 30 32 34 36 39 41 43 46 48 50 51 52 52 51 49 47 46 45 44 44 43 42 40 38 37 36 34 35 35 36 38 37 36 36 37 38
30 32 34 36 37 40 42 44 46 48 50 51 52 52 51 49 47 46 44 43 43 43 43 42 41 39 37 36 35 35 35 35 34 35 34 34 36 36
33 35 37 38 40 42 44 45 47 49 51 51 51 51 49 47 46 45 44 43 42 42 42 43 42 39 37 36 35 35 35 35 34 33 32 31 34 35
35 37 39 40 42 44 45 47 49 51 52 52 50 49 47 46 45 45 44 43 42 41 41 41 40 38 36 35 37 37 36 35 34 33 33 30 30 33
38 39 40 41 43 45 47 49 51 52 52 51 49 48 46 46 45 45 44 43 42 41 41 41 40 39 36 33 32 37 37 35 33 32 32 31 30 31
40 41 41 43 45 47 49 51 52 52 51 50 48 47 46 45 44 44 43 42 41 40 40 41 41 40 38 34 30 32 38 36 33 31 31 31 30 30
41 42 43 45 47 49 51 52 52 52 50 48 47 46 46 45 44 43 42 41 41 40 39 39 40 39 38 36 31 29 33 37 35 33 31 30 28 29
42 43 44 46 49 51 52 52 52 51 49 47 46 45 44 44 43 42 41 40 40 40 39 38 37 37 37 36 33 30 30 34 36 35 35 33 29 26
43 44 46 48 50 52 53 52 52 50 48 46 45 44 43 42 41 40 40 40 39 39 37 36 35 35 36 36 34 33 33 33 33 33 34 36 34 30
Wind_Direction
265 264 262 261 261 261 262 264 266 268 270 271 273 276 278 277 278 277 278 280 282 282 283 283 283 283 282 281 281 281 281 280 279 277 275 274 273 272
264 262 260 258 258 258 259 261 263 265 269 272 274 277 278 280 276 279 281 282 284 284 285 284 285 285 283 282 282 282 281 280 279 278 277 275 275 273
263 261 258 257 256 256 257 259 261 263 266 269 274 276 277 279 282 284 284 284 285 286 286 286 286 285 285 284 284 283 282 281 280 279 278 277 275 274
264 260 257 255 254 254 255 256 259 262 265 268 272 274 278 283 285 288 288 286 286 287 288 288 287 287 286 286 285 285 284 282 281 280 279 277 276 274
265 260 256 254 253 253 255 256 259 263 266 270 273 277 280 283 285 287 288 288 288 288 289 289 289 288 287 287 286 285 284 283 281 280 279 278 276 275
265 261 257 254 253 254 256 258 261 264 268 270 274 278 281 283 285 287 288 288 289 290 290 290 290 290 289 288 287 286 285 284 282 281 279 278 276 275
269 263 259 255 254 255 257 260 262 266 270 273 276 279 282 284 286 287 289 290 291 291 292 292 292 292 291 290 289 288 287 285 283 281 279 278 276 275
276 268 261 258 256 258 260 262 264 268 271 274 277 280 283 285 287 289 291 292 292 293 295 295 295 294 293 292 291 289 288 286 285 283 281 279 277 275
286 277 268 262 260 260 264 266 269 272 275 277 281 284 286 289 291 293 294 295 295 296 297 297 297 296 294 293 292 291 290 289 288 286 284 282 279 277
296 288 280 272 272 272 271 273 276 279 282 285 287 289 291 292 294 296 298 298 299 299 299 299 298 297 296 294 294 293 292 292 290 289 287 285 282 280
307 302 295 290 287 285 286 288 289 290 291 293 294 295 296 298 300 301 302 302 302 301 302 301 299 298 297 296 296 296 296 296 294 292 290 288 286 283
321 316 311 308 305 303 301 299 298 298 298 298 299 300 302 303 304 304 304 304 303 302 303 302 300 298 297 297 296 296 297 297 296 295 293 291 289 287
325 321 316 313 310 307 304 303 302 302 302 302 303 304 305 306 306 305 304 304 303 303 303 301 299 298 297 294 293 295 296 296 296 296 295 294 292 290
319 316 313 311 310 308 306 305 305 306 306 306 306 307 308 308 307 306 305 304 304 303 303 302 300 297 296 294 291 291 293 295 295 294 294 294 293 292
313 312 311 310 310 309 309 308 308 308 308 308 308 308 308 307 306 306 305 305 306 305 304 304 302 299 297 295 292 290 291 292 294 293 293 293 292 291
312 312 311 311 311 311 310 310 310 310 310 309 309 309 307 305 304 304 305 306 307 307 306 305 304 302 301 299 296 294 294 294 292 292 292 292 291 290
312 312 312 311 311 312 312 312 312 311 311 310 309 307 306 304 303 303 303 304 305 306 306 306 306 305 304 303 300 298 297 297 296 294 293 293 292 290
312 313 313 312 312 313 313 313 313 312 311 310 308 305 303 302 302 301 302 302 304 305 305 305 304 303 304 305 304 301 300 299 299 298 296 295 293 291
314 314 314 314 314 314 314 314 314 313 311 309 306 304 302 301 300 300 301 302 303 304 305 305 303 302 302 302 302 300 299 298 297 297 298 298 297 293
315 315 315 315 316 316 316 315 314 313 311 309 306 304 303 301 301 300 300 301 302 303 304 304 303 303 303 303 303 300 299 299 299 299 299 298 297 295
316 316 316 317 317 318 317 317 316 314 312 310 307 305 303 302 301 301 300 300 302 303 303 303 302 302 302 303 304 302 301 301 302 302 300 298 296 294
317 317 318 319 319 319 319 318 317 315 313 311 308 306 305 304 302 301 300 300 301 302 303 303 302 301 302 303 304 305 302 302 303 305 304 301 300 295
318 318 319 320 321 321 320 319 318 317 314 312 310 308 306 305 303 302 301 301 301 301 302 301 301 301 301 302 304 305 304 302 302 302 301 301 301 300